Weather History for Ubon Ratchathani, Thailand

Change the Weather History Date:

Tuesday, February 21, 2012

  Actual Average Record
Temperature  
Mean Temperature 78 °F -  
Max Temperature 94 °F 95 °F - ()
Min Temperature 61 °F 70 °F - ()
Cooling Degree Days 12    
Growing Degree Days 28 (Base 50)    
Moisture  
Dew Point 61 °F    
Average Humidity 56    
Maximum Humidity 88    
Minimum Humidity 28    
Precipitation  
Precipitation 0.00 in 0.03 in - ()
Sea Level Pressure  
Sea Level Pressure 29.77 in    
Wind  
Wind Speed 3 mph ()    
Max Wind Speed 5 mph    
Max Gust Speed -    
Visibility 5.1 miles    
Events      
T = Trace of Precipitation, MM = Missing Value Source: Averaged Metar Reports

Daily Weather History Graph

Daily Weather History Graph

Search for Another Location

Airport:

Trip Planner

Search our weather history database for the weather conditions in past years. The results will help you decide how hot, cold, wet, or windy it might be!

Date:

Astronomy

Feb. 21, 2012 Rise Set
Actual Time 6:22 AM ICT 6:05 PM ICT
Civil Twilight 6:00 AM ICT 6:27 PM ICT
Nautical Twilight 5:35 AM ICT 6:52 PM ICT
Astronomical Twilight 5:10 AM ICT 7:17 PM ICT
Moon 5:34 AM ICT (2/21) 5:35 PM ICT (2/21)
Length of Visible Light 12h 26m
Length of Day
11h 43m
Waning Crescent, 1% of the Moon is Illuminated
Feb 21
Waning Crescent
Feb 22
New
Mar 1
First Quarter
Mar 8
Full
Mar 15
Last Quarter

Hourly Weather History & Observations

Time (ICT) Temp. Heat Index Dew Point Humidity Pressure Visibility Wind Dir Wind Speed Gust Speed Precip Events Conditions
12:00 AM 71.6 °F - 60.8 °F 69% 29.80 in 5.6 mi NNE 4.6 mph - N/A   Unknown
1:00 AM 70 °F - 61 °F 65% 29.79 in 6 mi NNE 4.6 mph - -   Mist
1:00 AM 69.8 °F - 60.8 °F 73% 29.77 in 5.6 mi NNE 4.6 mph - N/A   Unknown
4:00 AM 64.4 °F - 59.0 °F 83% 29.77 in 5.6 mi North 2.3 mph - N/A   Unknown
5:00 AM 64.4 °F - 59.0 °F 83% 29.77 in 5.6 mi ENE 2.3 mph - N/A   Unknown
6:00 AM 62.6 °F - 59.0 °F 88% 29.80 in 5.0 mi Calm Calm - N/A   Unknown
7:00 AM 63 °F - 59 °F 83% 29.85 in 4 mi North 2.3 mph - -   Mist
7:00 AM 62.6 °F - 59.0 °F 88% 29.83 in 4.3 mi North 2.3 mph - N/A   Unknown
8:00 AM 66.2 °F - 59.0 °F 78% 29.83 in 5.0 mi NNE 3.5 mph - N/A   Unknown
9:00 AM 71.6 °F - 60.8 °F 69% 29.86 in 5.6 mi NNE 3.5 mph - N/A   Unknown
10:00 AM 78.8 °F - 62.6 °F 57% 29.86 in 5.6 mi East 2.3 mph - N/A   Unknown
11:00 AM 82.4 °F 83.4 °F 62.6 °F 51% 29.83 in 5.6 mi ENE 2.3 mph - N/A   Unknown
12:00 PM 86.0 °F 86.6 °F 62.6 °F 45% 29.80 in 5.6 mi East 3.5 mph - N/A   Unknown
1:00 PM 90 °F - 61 °F 28% 29.78 in 6 mi East 2.3 mph - -   Haze
1:00 PM 89.6 °F 89.5 °F 60.8 °F 38% 29.77 in 5.6 mi East 2.3 mph - N/A   Unknown
2:00 PM 91.4 °F 91.4 °F 60.8 °F 36% 29.71 in 5.6 mi NNW 3.5 mph - N/A   Unknown
3:00 PM 93.2 °F 93.3 °F 60.8 °F 34% 29.68 in 5.6 mi NW 2.3 mph - N/A   Unknown
4:00 PM 93.2 °F 93.3 °F 60.8 °F 34% 29.68 in 5.6 mi NNW 2.3 mph - N/A   Unknown
5:00 PM 91.4 °F 92.1 °F 62.6 °F 38% 29.68 in 5.0 mi West 4.6 mph - N/A   Unknown
6:00 PM 87.8 °F 89.4 °F 64.4 °F 46% 29.68 in 3.7 mi WSW 3.5 mph - N/A   Unknown
7:00 PM 85 °F - 62 °F 36% 29.71 in 4 mi Calm Calm - -   Haze
7:00 PM 84.2 °F 85.6 °F 64.4 °F 51% 29.71 in 3.7 mi West 1.2 mph - N/A   Unknown
8:00 PM 82.4 °F 82.5 °F 59.0 °F 45% 29.71 in 5.0 mi West 2.3 mph - N/A   Unknown
9:00 PM 82.4 °F 82.0 °F 57.2 °F 42% 29.74 in 5.0 mi Calm Calm - N/A   Unknown
10:00 PM 78.8 °F - 59.0 °F 51% 29.74 in 5.0 mi NNE 1.2 mph - N/A   Unknown
11:00 PM 77.0 °F - 59.0 °F 54% 29.74 in 5.0 mi North 2.3 mph - N/A   Unknown